| time (UTC) | temp C | wind direction | speed KPH | gust KPH | rain 1hr cm | rain 24hr cm | rain mn cm | humidity % | barometer mb |
| 20260505071834 | 17 | 250 | 1.6 | 6.4 | 0.00 | 0.00 | 0.00 | 71 | 1009.8 |
| 20260505070343 | 16 | 256 | 1.6 | 4.8 | 0.00 | 0.00 | 0.00 | 74 | 1009.9 |
| 20260505063449 | 14 | 295 | 1.6 | 3.2 | 0.00 | 0.00 | 0.00 | 80 | 1010.0 |
| 20260505061949 | 13 | 261 | 1.6 | 6.4 | 0.00 | 0.00 | 0.00 | 84 | 1010.1 |
| 20260505060451 | 12 | 219 | 1.6 | 4.8 | 0.00 | 0.00 | 0.00 | 85 | 1010.3 |
| 20260505054946 | 12 | 243 | 0.0 | 4.8 | 0.00 | 0.00 | 0.00 | 89 | 1010.3 |
| 20260505053448 | 10 | 175 | 1.6 | 4.8 | 0.00 | 0.00 | 0.00 | 92 | 1010.3 |
| 20260505051945 | 8 | 174 | 0.0 | 4.8 | 0.00 | 0.00 | 0.00 | 91 | 1010.4 |
| 20260505050446 | 8 | 285 | 0.0 | 0.0 | 0.00 | 0.00 | 0.00 | 89 | 1010.5 |
| 20260505040445 | 8 | 286 | 0.0 | 0.0 | 0.00 | 0.00 | 0.00 | 86 | 1010.4 |
| 20260505033446 | 8 | 285 | 0.0 | 0.0 | 0.00 | 0.00 | 0.00 | 86 | 1010.4 |
| 20260505031942 | 9 | 285 | 0.0 | 1.6 | 0.00 | 0.00 | 0.00 | 86 | 1010.6 |
| 20260505030445 | 9 | 286 | 0.0 | 1.6 | 0.00 | 0.00 | 0.00 | 84 | 1010.6 |
| 20260505024942 | 9 | 285 | 0.0 | 0.0 | 0.00 | 0.00 | 0.00 | 83 | 1010.7 |
| 20260505023444 | 9 | 285 | 0.0 | 0.0 | 0.00 | 0.00 | 0.00 | 82 | 1010.9 |
| 20260505014941 | 10 | 285 | 0.0 | 0.0 | 0.00 | 0.00 | 0.00 | 81 | 1011.2 |
| 20260505013442 | 11 | 285 | 0.0 | 0.0 | 0.00 | 0.00 | 0.00 | 81 | 1011.3 |
| 20260505011934 | 11 | 285 | 0.0 | 0.0 | 0.00 | 0.00 | 0.00 | 79 | 1011.3 |
| 20260505010435 | 12 | 286 | 0.0 | 0.0 | 0.00 | 0.00 | 0.00 | 79 | 1011.4 |
| 20260505004936 | 12 | 285 | 0.0 | 0.0 | 0.00 | 0.00 | 0.00 | 78 | 1011.5 |
| 20260505003436 | 12 | 285 | 0.0 | 1.6 | 0.00 | 0.00 | 0.00 | 78 | 1011.5 |
| 20260505001935 | 13 | 286 | 0.0 | 3.2 | 0.00 | 0.00 | 0.00 | 76 | 1011.6 |
| 20260505000437 | 13 | 178 | 0.0 | 0.0 | 0.00 | 0.00 | 0.00 | 75 | 1011.7 |
| 20260504234937 | 14 | 178 | 0.0 | 3.2 | 0.00 | 0.00 | 0.00 | 75 | 1011.6 |
| 20260504233436 | 14 | 178 | 0.0 | 1.6 | 0.00 | 0.00 | 0.00 | 75 | 1011.9 |
| 20260504231937 | 14 | 178 | 0.0 | 4.8 | 0.00 | 0.00 | 0.00 | 74 | 1011.9 |
| 20260504230435 | 15 | 267 | 1.6 | 4.8 | 0.00 | 0.00 | 0.00 | 73 | 1012.3 |
| 20260504224935 | 15 | 257 | 0.0 | 3.2 | 0.00 | 0.00 | 0.00 | 72 | 1012.4 |
| 20260504223435 | 15 | 257 | 0.0 | 1.6 | 0.00 | 0.00 | 0.00 | 70 | 1012.4 |
| 20260504221936 | 15 | 257 | 0.0 | 1.6 | 0.00 | 0.00 | 0.00 | 69 | 1012.4 |
| 20260504220438 | 16 | 257 | 0.0 | 3.2 | 0.00 | 0.00 | 0.00 | 69 | 1012.5 |
| 20260504214936 | 16 | 254 | 0.0 | 6.4 | 0.00 | 0.00 | 0.00 | 69 | 1012.9 |
| 20260504213433 | 16 | 203 | 1.6 | 11.3 | 0.00 | 0.00 | 0.00 | 68 | 1013.0 |
| 20260504211931 | 16 | 250 | 3.2 | 11.3 | 0.00 | 0.00 | 0.00 | 68 | 1013.1 |
| 20260504210433 | 16 | 268 | 4.8 | 17.7 | 0.00 | 0.00 | 0.00 | 67 | 1013.0 |
| 20260504204935 | 17 | 278 | 8.0 | 20.9 | 0.00 | 0.00 | 0.00 | 66 | 1013.4 |
| 20260504201930 | 17 | 229 | 8.0 | 17.7 | 0.00 | 0.00 | 0.00 | 62 | 1013.2 |
| 20260504200430 | 17 | 253 | 3.2 | 19.3 | 0.00 | 0.00 | 0.00 | 58 | 1013.1 |
| 20260504194933 | 18 | 240 | 0.0 | 3.2 | 0.00 | 0.00 | 0.00 | 55 | 1012.3 |
| 20260504193439 | 18 | 238 | 0.0 | 1.6 | 0.00 | 0.00 | 0.00 | 54 | 1012.2 |
| 20260504191945 | 19 | 235 | 0.0 | 3.2 | 0.00 | 0.00 | 0.00 | 53 | 1012.0 |
| 20260504190445 | 20 | 200 | 0.0 | 0.0 | 0.00 | 0.00 | 0.00 | 52 | 1012.0 |
| 20260504184946 | 20 | 200 | 0.0 | 0.0 | 0.00 | 0.00 | 0.00 | 50 | 1011.8 |
| 20260504183446 | 20 | 200 | 0.0 | 3.2 | 0.00 | 0.00 | 0.00 | 49 | 1011.8 |
| 20260504180431 | 21 | 41 | 0.0 | 3.2 | 0.00 | 0.00 | 0.00 | 48 | 1011.7 |
| 20260504174931 | 21 | 103 | 0.0 | 3.2 | 0.00 | 0.00 | 0.00 | 47 | 1011.7 |
| 20260504171930 | 21 | 169 | 1.6 | 4.8 | 0.00 | 0.00 | 0.00 | 46 | 1011.6 |
| 20260504170431 | 22 | 71 | 1.6 | 8.0 | 0.00 | 0.00 | 0.00 | 45 | 1011.6 |
| 20260504160430 | 23 | 46 | 3.2 | 12.9 | 0.00 | 0.00 | 0.00 | 43 | 1011.7 |
| 20260504140424 | 23 | 71 | 4.8 | 14.5 | 0.00 | 0.00 | 0.00 | 43 | 1012.2 |
| 20260504130422 | 23 | 51 | 6.4 | 14.5 | 0.00 | 0.00 | 0.00 | 43 | 1012.6 |
| 20260504110418 | 23 | 94 | 4.8 | 14.5 | 0.00 | 0.00 | 0.00 | 43 | 1014.0 |
| 20260504081916 | 21 | 63 | 3.2 | 12.9 | 0.00 | 0.00 | 0.00 | 46 | 1015.9 |
| 20260504080416 | 21 | 32 | 3.2 | 8.0 | 0.00 | 0.00 | 0.00 | 47 | 1016.1 |